Radiation Dose at Monitoring Post of Fukushima Daini Nuclear Power Station
Date,Time,MP-1(microSv/h),MP-2(microSv/h),MP-3(microSv/h),MP-4(microSv/h),MP-5(microSv/h),MP-6(microSv/h),MP-7(microSv/h),Wind Direction,Wind Velocity(m/s),Rain
2020/09/15,00:00,0.177,0.157,0.258,0.243,0.244,0.138,0.083,north-northwest,5.7,Yes
2020/09/15,00:10,0.174,0.156,0.259,0.246,0.242,0.139,0.083,north-northwest,6.8,Yes
2020/09/15,00:20,0.177,0.157,0.258,0.243,0.245,0.138,0.083,north-northwest,8.4,Yes
2020/09/15,00:30,0.176,0.156,0.260,0.246,0.245,0.138,0.083,north-northwest,7.0,Yes
2020/09/15,00:40,0.175,0.156,0.257,0.243,0.244,0.138,0.084,north-northwest,7.7,Yes
2020/09/15,00:50,0.177,0.156,0.259,0.244,0.244,0.137,0.082,north-northwest,6.7,No
2020/09/15,01:00,0.175,0.158,0.259,0.244,0.242,0.139,0.083,north-northwest,6.2,No
2020/09/15,01:10,0.176,0.157,0.257,0.244,0.245,0.137,0.083,north-northwest,6.5,Yes
2020/09/15,01:20,0.176,0.155,0.257,0.245,0.243,0.138,0.083,north-northwest,6.9,No
2020/09/15,01:30,0.175,0.156,0.256,0.243,0.245,0.138,0.083,north-northwest,7.4,Yes
2020/09/15,01:40,0.177,0.156,0.258,0.245,0.244,0.138,0.084,north-northwest,7.4,Yes
2020/09/15,01:50,0.176,0.156,0.256,0.244,0.242,0.138,0.082,north-northwest,7.0,Yes
2020/09/15,02:00,0.176,0.156,0.259,0.242,0.245,0.137,0.084,north-northwest,6.8,No
2020/09/15,02:10,0.176,0.156,0.257,0.244,0.242,0.138,0.083,north-northwest,6.2,Yes
2020/09/15,02:20,0.175,0.156,0.258,0.242,0.244,0.138,0.084,north,6.9,Yes
2020/09/15,02:30,0.175,0.156,0.257,0.245,0.242,0.138,0.083,north,6.6,Yes
2020/09/15,02:40,0.175,0.156,0.258,0.243,0.242,0.137,0.083,north-northwest,6.7,No
2020/09/15,02:50,0.176,0.155,0.258,0.244,0.243,0.138,0.082,north-northwest,6.8,Yes
2020/09/15,03:00,0.173,0.155,0.256,0.244,0.241,0.137,0.083,north-northwest,5.7,No
2020/09/15,03:10,0.176,0.155,0.258,0.242,0.244,0.138,0.083,north-northwest,5.2,No
2020/09/15,03:20,0.175,0.156,0.255,0.243,0.243,0.138,0.083,north-northwest,5.5,Yes
2020/09/15,03:30,0.175,0.155,0.259,0.241,0.242,0.138,0.083,north-northwest,7.1,Yes
2020/09/15,03:40,0.177,0.157,0.258,0.245,0.243,0.139,0.083,north,7.1,Yes
2020/09/15,03:50,0.174,0.156,0.257,0.243,0.242,0.138,0.083,north-northwest,7.0,Yes
2020/09/15,04:00,0.176,0.156,0.258,0.243,0.245,0.138,0.083,north-northwest,7.1,No
2020/09/15,04:10,0.175,0.157,0.257,0.244,0.241,0.139,0.084,north-northwest,7.1,No
2020/09/15,04:20,0.174,0.156,0.260,0.243,0.244,0.138,0.083,north-northwest,6.1,No
2020/09/15,04:30,0.176,0.156,0.255,0.244,0.244,0.138,0.083,north-northwest,6.3,No
2020/09/15,04:40,0.174,0.156,0.259,0.242,0.242,0.138,0.083,north-northwest,5.7,No
2020/09/15,04:50,0.176,0.157,0.257,0.245,0.244,0.137,0.082,north-northwest,6.1,No
2020/09/15,05:00,0.175,0.155,0.258,0.242,0.243,0.139,0.083,north-northwest,6.4,No
2020/09/15,05:10,0.175,0.156,0.258,0.243,0.244,0.137,0.082,north-northwest,5.0,No
2020/09/15,05:20,0.176,0.155,0.257,0.245,0.243,0.137,0.083,north-northwest,4.1,No
2020/09/15,05:30,0.174,0.155,0.257,0.241,0.243,0.138,0.083,northwest,2.5,No
2020/09/15,05:40,0.176,0.155,0.255,0.245,0.246,0.137,0.083,north-northwest,3.2,No
2020/09/15,05:50,0.174,0.156,0.259,0.242,0.242,0.138,0.083,north-northwest,2.4,No
2020/09/15,06:00,0.175,0.156,0.257,0.242,0.243,0.138,0.083,northwest,2.7,No
2020/09/15,06:10,0.176,0.156,0.257,0.244,0.244,0.137,0.083,north-northwest,3.8,No
2020/09/15,06:20,0.174,0.155,0.258,0.242,0.242,0.138,0.083,north-northwest,3.5,No
2020/09/15,06:30,0.175,0.156,0.256,0.243,0.244,0.137,0.082,north-northwest,4.2,No
2020/09/15,06:40,0.175,0.156,0.257,0.243,0.244,0.137,0.084,north-northwest,3.9,No
2020/09/15,06:50,0.173,0.155,0.256,0.241,0.241,0.138,0.083,north-northwest,3.1,No
2020/09/15,07:00,0.176,0.156,0.257,0.244,0.245,0.138,0.083,north-northwest,3.4,No
2020/09/15,07:10,0.176,0.156,0.259,0.242,0.243,0.138,0.082,north,2.7,No
2020/09/15,07:20,0.174,0.157,0.256,0.241,0.241,0.138,0.083,north,2.6,No
2020/09/15,07:30,0.176,0.157,0.256,0.245,0.243,0.137,0.082,north,2.9,No
2020/09/15,07:40,0.175,0.155,0.259,0.243,0.245,0.136,0.081,north-northwest,2.6,No
2020/09/15,07:50,0.174,0.155,0.257,0.241,0.242,0.137,0.083,north-northwest,2.5,No
2020/09/15,08:00,0.176,0.156,0.255,0.244,0.240,0.137,0.083,north,2.3,No
2020/09/15,08:10,0.176,0.155,0.257,0.244,0.244,0.136,0.082,north,3.2,Yes
2020/09/15,08:20,0.174,0.156,0.258,0.242,0.245,0.137,0.082,north,2.8,No
2020/09/15,08:30,0.176,0.156,0.255,0.242,0.241,0.138,0.083,north,3.0,No
2020/09/15,08:40,0.175,0.154,0.256,0.245,0.243,0.137,0.082,north,2.9,No
2020/09/15,08:50,0.174,0.155,0.258,0.242,0.244,0.136,0.082,north-northeast,3.3,No
2020/09/15,09:00,0.173,0.156,0.255,0.239,0.242,0.138,0.082,north-northeast,3.4,No
2020/09/15,09:10,0.176,0.155,0.255,0.241,0.241,0.138,0.081,north-northeast,3.6,No
2020/09/15,09:20,0.176,0.155,0.254,0.240,0.240,0.138,0.082,north-northeast,3.9,No
2020/09/15,09:30,0.174,0.155,0.255,0.243,0.241,0.137,0.081,north-northeast,3.4,No
2020/09/15,09:40,0.174,0.154,0.256,0.241,0.241,0.137,0.081,north-northeast,3.7,No
2020/09/15,09:50,0.174,0.155,0.257,0.243,0.241,0.138,0.083,northeast,3.1,No
2020/09/15,10:00,0.174,0.154,0.256,0.243,0.242,0.137,0.082,northeast,3.7,No
2020/09/15,10:10,0.173,0.154,0.255,0.241,0.243,0.137,0.082,northeast,2.7,No
2020/09/15,10:20,0.173,0.156,0.256,0.241,0.241,0.137,0.082,northeast,4.1,No
2020/09/15,10:30,0.175,0.155,0.259,0.244,0.243,0.137,0.082,north-northeast,4.0,No
2020/09/15,10:40,0.176,0.155,0.259,0.244,0.245,0.138,0.082,north-northeast,4.0,No
2020/09/15,10:50,0.175,0.155,0.257,0.244,0.244,0.138,0.082,northeast,3.1,No
2020/09/15,11:00,0.174,0.156,0.257,0.243,0.242,0.137,0.082,north-northeast,3.0,No
2020/09/15,11:10,0.174,0.155,0.254,0.241,0.242,0.136,0.082,northeast,3.8,No
2020/09/15,11:20,0.176,0.155,0.259,0.239,0.242,0.137,0.082,north-northeast,3.2,No
2020/09/15,11:30,0.174,0.154,0.258,0.244,0.240,0.137,0.082,north-northeast,3.0,No
2020/09/15,11:40,0.174,0.155,0.257,0.246,0.241,0.137,0.082,northeast,2.4,No
2020/09/15,11:50,0.173,0.156,0.257,0.245,0.241,0.137,0.082,northeast,2.9,No
2020/09/15,12:00,0.173,0.156,0.255,0.244,0.241,0.137,0.082,northeast,2.3,No
2020/09/15,12:10,0.174,0.155,0.255,0.243,0.244,0.138,0.082,north-northeast,2.2,No
2020/09/15,12:20,0.175,0.154,0.259,0.241,0.245,0.138,0.083,north-northeast,2.6,No
2020/09/15,12:30,0.176,0.155,0.260,0.243,0.243,0.137,0.083,north-northeast,2.2,No
2020/09/15,12:40,0.175,0.156,0.257,0.246,0.242,0.138,0.082,northeast,2.5,No
2020/09/15,12:50,0.173,0.155,0.257,0.244,0.242,0.138,0.081,northeast,2.0,No
2020/09/15,13:00,0.174,0.156,0.256,0.244,0.241,0.138,0.081,northeast,1.9,No
2020/09/15,13:10,0.177,0.154,0.260,0.242,0.242,0.138,0.083,east-northeast,2.1,No
2020/09/15,13:20,0.175,0.156,0.260,0.241,0.244,0.138,0.082,northeast,1.9,No
2020/09/15,13:30,0.174,0.157,0.256,0.245,0.245,0.137,0.082,northeast,1.7,No
2020/09/15,13:40,0.174,0.155,0.256,0.246,0.242,0.137,0.081,northeast,1.3,No
2020/09/15,13:50,0.175,0.154,0.257,0.243,0.241,0.138,0.082,east,1.5,No
2020/09/15,14:00,0.176,0.155,0.259,0.242,0.242,0.139,0.083,north-northeast,1.2,No
2020/09/15,14:10,0.175,0.157,0.258,0.242,0.240,0.138,0.082,northeast,3.2,No
2020/09/15,14:20,0.174,0.156,0.258,0.242,0.242,0.138,0.083,northeast,1.3,No
2020/09/15,14:30,0.175,0.155,0.258,0.243,0.242,0.137,0.082,northeast,2.1,No
2020/09/15,14:40,0.174,0.155,0.257,0.242,0.243,0.138,0.082,east-northeast,1.4,No
2020/09/15,14:50,0.174,0.154,0.257,0.242,0.243,0.137,0.081,east-northeast,1.1,No
2020/09/15,15:00,0.174,0.155,0.256,0.243,0.241,0.138,0.083,east-northeast,1.8,No
2020/09/15,15:10,0.175,0.155,0.261,0.247,0.242,0.137,0.082,east-northeast,2.3,No
2020/09/15,15:20,0.173,0.156,0.261,0.246,0.242,0.137,0.082,east-northeast,1.2,No
2020/09/15,15:30,0.173,0.157,0.257,0.243,0.242,0.137,0.082,northeast,1.8,No
2020/09/15,15:40,0.174,0.156,0.258,0.245,0.242,0.137,0.083,northeast,1.3,No
2020/09/15,15:50,0.177,0.155,0.261,0.245,0.242,0.138,0.082,northeast,2.3,No
2020/09/15,16:00,0.177,0.157,0.258,0.243,0.247,0.138,0.083,northeast,1.9,No
2020/09/15,16:10,0.175,0.157,0.258,0.242,0.245,0.138,0.082,north-northeast,1.6,No
2020/09/15,16:20,0.174,0.156,0.261,0.245,0.243,0.138,0.083,northeast,2.3,No
2020/09/15,16:30,0.176,0.156,0.259,0.244,0.243,0.138,0.082,east-northeast,2.0,No
2020/09/15,16:40,0.176,0.156,0.256,0.243,0.247,0.137,0.082,northeast,2.0,No
2020/09/15,16:50,0.174,0.156,0.261,0.246,0.245,0.138,0.083,east-northeast,1.7,No
2020/09/15,17:00,0.176,0.155,0.259,0.246,0.242,0.139,0.082,northeast,1.5,No
2020/09/15,17:10,0.177,0.157,0.257,0.243,0.244,0.137,0.082,northeast,1.1,No
2020/09/15,17:20,0.175,0.155,0.261,0.246,0.246,0.138,0.083,northeast,1.3,No
2020/09/15,17:30,0.175,0.156,0.259,0.245,0.243,0.138,0.082,northeast,1.3,No
2020/09/15,17:40,0.176,0.156,0.257,0.243,0.243,0.137,0.082,north-northeast,2.1,No
2020/09/15,17:50,0.175,0.155,0.261,0.246,0.244,0.137,0.083,north-northeast,2.7,No
2020/09/15,18:00,0.174,0.157,0.259,0.245,0.242,0.138,0.083,northeast,3.5,No
2020/09/15,18:10,0.175,0.156,0.258,0.243,0.244,0.137,0.083,north-northeast,3.3,No
2020/09/15,18:20,0.175,0.156,0.260,0.247,0.245,0.138,0.083,north-northeast,3.1,No
2020/09/15,18:30,0.176,0.156,0.257,0.245,0.241,0.137,0.083,north-northeast,2.7,No
2020/09/15,18:40,0.175,0.156,0.259,0.244,0.244,0.138,0.082,north-northeast,0.9,No
2020/09/15,18:50,0.174,0.156,0.258,0.246,0.245,0.138,0.083,north-northeast,0.9,No
2020/09/15,19:00,0.177,0.156,0.258,0.243,0.241,0.138,0.083,north-northeast,0.7,No
2020/09/15,19:10,0.175,0.156,0.260,0.247,0.245,0.137,0.083,north-northeast,1.5,No
2020/09/15,19:20,0.176,0.156,0.258,0.245,0.244,0.138,0.083,northeast,0.9,No
2020/09/15,19:30,0.177,0.156,0.259,0.244,0.242,0.139,0.082,north-northeast,1.8,No
2020/09/15,19:40,0.175,0.157,0.260,0.247,0.246,0.137,0.083,north-northeast,2.0,No
2020/09/15,19:50,0.175,0.156,0.258,0.245,0.243,0.138,0.083,-,CALM,No
2020/09/15,20:00,0.177,0.155,0.261,0.246,0.244,0.138,0.082,north,0.6,No
2020/09/15,20:10,0.175,0.156,0.259,0.245,0.244,0.138,0.083,northwest,0.6,No
2020/09/15,20:20,0.176,0.155,0.260,0.245,0.241,0.139,0.082,north,1.3,No
2020/09/15,20:30,0.176,0.157,0.259,0.247,0.246,0.137,0.083,north,1.2,No
2020/09/15,20:40,0.176,0.156,0.258,0.245,0.244,0.139,0.083,north,2.4,No
2020/09/15,20:50,0.177,0.157,0.262,0.245,0.243,0.138,0.082,north,2.5,No
2020/09/15,21:00,0.176,0.157,0.258,0.244,0.246,0.138,0.083,north-northwest,2.9,No
2020/09/15,21:10,0.176,0.155,0.261,0.245,0.242,0.139,0.083,northwest,2.5,No
2020/09/15,21:20,0.176,0.156,0.258,0.247,0.245,0.138,0.082,west-northwest,2.2,No
2020/09/15,21:30,0.175,0.155,0.259,0.244,0.244,0.138,0.084,northwest,1.4,No
2020/09/15,21:40,0.177,0.156,0.260,0.246,0.242,0.139,0.082,north-northwest,1.9,No
2020/09/15,21:50,0.176,0.156,0.258,0.245,0.246,0.138,0.084,northwest,2.2,No
2020/09/15,22:00,0.177,0.156,0.261,0.245,0.244,0.139,0.083,north-northwest,3.4,No
2020/09/15,22:10,0.177,0.156,0.259,0.246,0.244,0.139,0.083,north,3.1,No
2020/09/15,22:20,0.175,0.156,0.261,0.244,0.245,0.138,0.084,north-northwest,3.1,No
2020/09/15,22:30,0.177,0.157,0.259,0.246,0.242,0.139,0.084,northwest,2.3,No
2020/09/15,22:40,0.176,0.157,0.259,0.244,0.245,0.139,0.083,northwest,3.3,No
2020/09/15,22:50,0.176,0.158,0.260,0.246,0.243,0.139,0.084,north,2.1,No
2020/09/15,23:00,0.177,0.157,0.258,0.247,0.244,0.139,0.083,north-northeast,0.7,No
2020/09/15,23:10,0.174,0.156,0.260,0.245,0.244,0.138,0.083,northwest,3.4,No
2020/09/15,23:20,0.177,0.157,0.259,0.247,0.243,0.139,0.083,north-northwest,3.3,No
2020/09/15,23:30,0.177,0.157,0.261,0.245,0.245,0.139,0.083,north-northwest,3.5,No
2020/09/15,23:40,0.176,0.157,0.258,0.247,0.242,0.138,0.083,northwest,2.5,No
2020/09/15,23:50,0.177,0.156,0.259,0.246,0.245,0.138,0.083,northwest,3.1,No
